Temp
75 75 75 75 75 76 75 75 75 76 75 76 75 75 76 77 77 77 78 77 76 76 77 76 76 76 78 76 76 75 76 74 74 74 75 75 75 75 78 76 76 75
75 76 77 77 76 77 76 76 76 76 76 76 76 76 76 76 77 77 77 77 76 77 76 77 76 76 76 77 75 75 75 75 74 78 76 76 75 75 76 76 76 75
75 76 76 76 76 76 77 77 77 77 77 77 77 77 77 78 77 76 77 77 77 78 77 76 76 76 76 76 75 76 76 74 75 75 76 76 75 75 75 76 76 77
75 76 77 78 77 77 77 76 76 76 77 76 76 78 78 80 78 77 77 79 77 77 77 76 77 77 76 76 75 75 75 75 75 75 76 75 75 75 76 75 77 77
76 76 77 78 78 78 77 77 77 76 77 77 78 77 78 77 77 78 77 77 77 77 76 77 76 77 77 76 75 75 75 75 75 75 74 75 75 75 77 77 75 76
77 77 77 77 77 77 77 77 77 78 77 77 78 78 78 78 77 78 78 78 78 78 78 77 77 77 77 76 75 75 76 77 76 74 75 74 76 76 78 77 75 75
77 76 77 77 78 77 77 77 78 78 78 79 78 78 79 78 78 78 78 78 79 78 78 77 76 77 76 75 75 75 75 75 75 75 75 75 75 76 76 76 75 75
78 78 78 77 78 78 77 78 78 78 78 78 78 79 79 79 79 79 79 79 79 78 78 78 77 76 77 76 76 75 75 77 77 75 74 75 74 74 75 77 76 74
78 78 78 77 78 78 78 79 79 79 79 79 79 79 79 80 80 80 78 78 79 78 77 77 77 77 77 76 76 76 76 76 78 76 76 76 75 75 76 75 75 75
77 78 79 79 78 78 78 79 80 80 79 79 80 80 79 79 80 80 79 78 78 78 77 77 77 77 78 77 77 77 76 76 76 76 76 76 76 76 76 76 76 74
78 78 78 79 79 79 80 80 81 81 80 80 80 80 80 80 79 79 78 78 79 78 78 77 77 78 77 78 78 78 78 78 77 76 76 76 77 77 79 77 76 76
77 78 79 79 79 80 80 81 81 81 80 80 81 80 80 80 80 79 80 78 78 79 79 78 78 78 77 78 79 79 78 78 78 77 77 77 77 77 77 77 77 76
76 78 79 79 79 80 81 81 81 82 82 81 81 81 81 80 80 80 79 79 79 79 79 79 78 78 77 78 78 78 78 78 78 77 77 77 77 78 79 78 78 78
77 77 78 78 79 79 79 81 82 81 81 82 81 80 81 81 81 81 80 80 80 80 79 79 78 78 77 78 78 79 78 78 78 78 78 77 78 78 79 79 79 79
76 77 77 77 79 78 78 79 80 80 80 80 80 81 83 82 83 82 80 79 80 79 79 79 79 79 79 78 78 77 78 78 78 78 77 77 77 79 79 79 79 79
76 76 76 76 76 77 77 77 78 79 80 80 80 81 81 81 81 81 82 81 80 79 79 80 80 80 81 82 81 80 78 80 79 78 77 77 77 77 78 78 79 79
75 76 76 75 76 76 76 76 76 77 77 78 78 79 79 79 80 80 81 81 81 80 79 80 81 81 81 73 73 78 81 78 78 77 76 77 77 76 76 77 76 76
75 75 75 75 75 75 76 75 75 75 75 75 77 78 77 78 78 78 79 80 81 80 79 79 78 74 67 66 70 71 78 78 77 78 78 76 76 76 76 75 75 76
74 74 75 75 74 73 73 75 75 75 75 75 75 77 77 77 77 77 77 77 78 77 77 77 75 66 64 66 66 66 69 78 76 77 77 77 76 76 76 75 74 74
72 72 71 69 69 70 70 70 71 71 70 70 73 74 75 76 76 76 76 76 76 76 75 72 69 65 63 65 65 65 66 70 74 76 76 76 76 76 77 75 73 73
71 71 70 69 69 70 70 70 69 68 69 69 69 70 72 73 73 74 75 75 75 73 71 69 68 61 61 63 62 64 65 70 72 76 76 75 75 75 74 74 73 73
69 69 70 70 70 70 71 70 69 69 69 70 69 69 71 71 70 72 72 70 69 69 69 66 63 58 59 60 60 61 68 73 71 72 73 73 73 73 73 73 72 71
70 70 70 70 70 70 70 70 69 69 69 70 69 70 71 70 69 69 67 67 67 66 65 63 63 60 57 57 58 59 69 70 70 72 72 72 72 72 72 72 71 70
70 70 69 69 69 70 69 70 71 71 70 71 68 69 70 70 71 69 68 67 66 64 65 63 62 61 56 56 56 58 69 69 70 72 71 72 72 72 71 71 72 77
70 69 68 68 68 68 69 68 69 70 70 70 69 69 69 69 69 68 67 66 66 67 71 65 63 64 58 55 56 58 65 68 69 71 72 72 73 72 71 70 71 76
70 70 69 69 68 68 69 69 70 69 69 69 69 69 69 69 70 69 67 67 67 66 66 65 64 64 62 54 55 58 64 68 67 70 71 72 72 71 70 69 69 68
MSLP
1019.01 1019.12 1019.33 1019.53 1019.68 1019.72 1019.97 1020.21 1020.28 1020.45 1020.53 1020.57 1020.77 1020.77 1020.68 1020.53 1020.48 1020.57 1020.60 1020.65 1020.68 1020.77 1020.77 1020.80 1020.80 1020.89 1020.80 1020.84 1020.84 1020.92 1020.97 1020.97 1020.97 1020.89 1020.89 1020.89 1020.97 1020.97 1021.01 1020.89 1020.80 1020.89
1018.97 1019.01 1019.09 1019.24 1019.45 1019.53 1019.65 1019.72 1019.97 1020.12 1020.28 1020.33 1020.36 1020.36 1020.36 1020.36 1020.36 1020.45 1020.60 1020.68 1020.68 1020.72 1020.68 1020.72 1020.77 1020.80 1020.84 1020.84 1020.84 1020.97 1020.97 1020.97 1021.01 1020.72 1020.84 1020.89 1020.92 1020.89 1020.92 1020.84 1020.80 1020.72
1018.84 1018.97 1019.12 1019.33 1019.41 1019.48 1019.53 1019.57 1019.68 1019.84 1020.01 1020.04 1020.04 1020.16 1020.24 1020.21 1020.33 1020.36 1020.45 1020.57 1020.68 1020.68 1020.68 1020.68 1020.72 1020.77 1020.77 1020.77 1020.80 1020.92 1020.97 1021.01 1021.01 1020.77 1020.77 1020.84 1020.77 1020.84 1020.77 1020.72 1020.72 1020.72
1018.72 1018.77 1018.89 1019.01 1019.09 1019.24 1019.28 1019.53 1019.68 1019.77 1019.80 1020.04 1020.09 1020.01 1020.04 1020.09 1020.16 1020.33 1020.41 1020.41 1020.57 1020.65 1020.60 1020.65 1020.65 1020.68 1020.72 1020.68 1020.77 1020.89 1020.89 1020.92 1020.80 1020.77 1020.84 1020.77 1020.72 1020.72 1020.72 1020.65 1020.68 1020.60
1018.60 1018.68 1018.72 1018.80 1018.84 1018.92 1019.12 1019.41 1019.60 1019.68 1019.80 1019.80 1019.80 1019.89 1020.01 1020.09 1020.21 1020.28 1020.36 1020.45 1020.48 1020.57 1020.60 1020.60 1020.57 1020.60 1020.60 1020.68 1020.77 1020.92 1020.89 1020.97 1020.80 1020.80 1020.97 1021.04 1020.80 1020.77 1020.68 1020.68 1020.80 1020.84
1018.41 1018.45 1018.53 1018.68 1018.77 1018.92 1019.16 1019.28 1019.33 1019.48 1019.60 1019.77 1019.77 1019.72 1019.80 1019.89 1020.04 1020.16 1020.24 1020.41 1020.41 1020.48 1020.57 1020.53 1020.57 1020.53 1020.53 1020.60 1020.72 1020.84 1020.89 1020.97 1020.84 1020.89 1021.04 1021.16 1021.01 1020.77 1020.77 1020.77 1020.89 1020.92
1018.36 1018.45 1018.53 1018.53 1018.68 1018.72 1018.97 1019.04 1019.12 1019.16 1019.28 1019.33 1019.45 1019.68 1019.65 1019.80 1019.92 1020.01 1020.04 1020.12 1020.24 1020.36 1020.45 1020.48 1020.53 1020.53 1020.45 1020.57 1020.72 1020.84 1020.84 1020.89 1020.84 1020.97 1021.12 1021.09 1021.04 1020.97 1020.72 1020.77 1020.80 1020.84
1018.12 1018.16 1018.28 1018.41 1018.57 1018.68 1018.84 1018.89 1018.97 1019.01 1019.01 1019.16 1019.45 1019.36 1019.41 1019.60 1019.68 1019.72 1019.80 1019.89 1020.04 1020.16 1020.21 1020.28 1020.33 1020.36 1020.36 1020.48 1020.68 1020.80 1020.84 1020.77 1020.89 1020.92 1021.04 1021.04 1021.01 1021.09 1020.84 1020.68 1020.65 1020.77
1017.84 1018.04 1018.16 1018.33 1018.53 1018.57 1018.72 1018.72 1018.72 1018.77 1018.72 1019.04 1019.16 1019.21 1019.16 1019.24 1019.36 1019.45 1019.57 1019.68 1019.80 1019.89 1020.01 1020.16 1020.16 1020.24 1020.24 1020.36 1020.53 1020.65 1020.77 1020.77 1020.68 1020.77 1020.92 1020.97 1021.01 1020.92 1020.77 1020.57 1020.68 1020.68
1017.80 1017.84 1018.01 1018.16 1018.41 1018.41 1018.57 1018.53 1018.48 1018.57 1018.53 1018.68 1018.77 1018.84 1019.04 1019.04 1019.04 1019.16 1019.33 1019.53 1019.65 1019.77 1019.84 1019.97 1020.04 1020.09 1020.16 1020.24 1020.33 1020.41 1020.53 1020.60 1020.57 1020.60 1020.60 1020.60 1020.65 1020.60 1020.53 1020.53 1020.57 1020.65
1017.68 1017.77 1017.92 1018.04 1018.16 1018.16 1018.33 1018.28 1018.33 1018.36 1018.41 1018.48 1018.57 1018.72 1018.72 1018.80 1018.92 1018.89 1019.12 1019.33 1019.53 1019.60 1019.68 1019.80 1019.84 1019.89 1020.04 1020.12 1020.12 1020.09 1020.21 1020.28 1020.33 1020.36 1020.41 1020.36 1020.33 1020.28 1020.21 1020.24 1020.33 1020.41
1017.48 1017.57 1017.68 1017.80 1017.89 1017.92 1018.01 1018.01 1018.09 1018.16 1018.24 1018.24 1018.28 1018.48 1018.53 1018.57 1018.72 1018.80 1018.89 1019.12 1019.16 1019.21 1019.28 1019.45 1019.53 1019.65 1019.77 1019.84 1019.89 1019.89 1020.01 1020.04 1020.09 1020.12 1020.16 1020.16 1020.12 1020.09 1020.01 1019.97 1020.09 1020.09
1017.28 1017.28 1017.33 1017.45 1017.53 1017.60 1017.60 1017.72 1017.84 1017.89 1018.01 1018.12 1018.04 1018.21 1018.36 1018.48 1018.48 1018.65 1018.60 1018.77 1018.89 1018.92 1019.09 1019.16 1019.28 1019.36 1019.48 1019.57 1019.60 1019.68 1019.80 1019.92 1019.97 1020.01 1020.01 1020.01 1019.92 1019.89 1019.80 1019.77 1019.80 1019.80
1016.89 1016.89 1017.01 1017.09 1017.12 1017.21 1017.36 1017.45 1017.53 1017.65 1017.72 1017.72 1017.84 1018.12 1018.24 1018.28 1018.41 1018.48 1018.45 1018.48 1018.60 1018.72 1018.72 1018.80 1019.01 1019.16 1019.24 1019.28 1019.33 1019.41 1019.53 1019.68 1019.77 1019.89 1019.92 1019.92 1019.80 1019.68 1019.60 1019.60 1019.57 1019.53
1016.57 1016.65 1016.68 1016.84 1016.92 1017.04 1017.21 1017.33 1017.36 1017.36 1017.45 1017.57 1017.68 1017.84 1017.89 1017.97 1017.97 1018.09 1018.33 1018.48 1018.41 1018.48 1018.57 1018.65 1018.80 1018.92 1018.92 1019.04 1019.24 1019.28 1019.33 1019.48 1019.57 1019.65 1019.72 1019.84 1019.80 1019.65 1019.48 1019.45 1019.36 1019.33
1016.41 1016.57 1016.68 1016.80 1016.97 1017.09 1017.09 1017.12 1017.21 1017.24 1017.28 1017.45 1017.53 1017.57 1017.60 1017.65 1017.77 1017.84 1018.04 1018.21 1018.41 1018.41 1018.45 1018.57 1018.65 1018.60 1018.57 1018.60 1018.72 1018.92 1019.12 1019.21 1019.28 1019.41 1019.48 1019.57 1019.65 1019.68 1019.57 1019.41 1019.28 1019.16
1016.36 1016.53 1016.60 1016.84 1016.84 1016.92 1016.97 1017.04 1017.09 1017.12 1017.24 1017.33 1017.36 1017.41 1017.48 1017.57 1017.68 1017.92 1017.97 1017.97 1018.12 1018.24 1018.41 1018.45 1018.36 1018.28 1018.28 1018.45 1018.57 1018.65 1018.80 1019.04 1019.21 1019.24 1019.28 1019.36 1019.45 1019.57 1019.57 1019.36 1019.21 1019.04
1016.24 1016.36 1016.57 1016.60 1016.68 1016.84 1016.84 1016.89 1016.97 1017.12 1017.28 1017.33 1017.36 1017.45 1017.41 1017.41 1017.68 1017.72 1017.77 1017.80 1017.89 1018.04 1018.21 1018.16 1018.16 1018.12 1018.24 1018.41 1018.48 1018.53 1018.57 1018.72 1018.89 1019.04 1019.12 1019.21 1019.24 1019.28 1019.28 1019.24 1019.24 1019.24
1016.09 1016.33 1016.36 1016.48 1016.57 1016.68 1016.72 1016.77 1016.89 1017.04 1017.12 1017.24 1017.33 1017.16 1017.21 1017.45 1017.45 1017.53 1017.65 1017.68 1017.80 1018.01 1018.12 1018.04 1018.04 1018.24 1018.36 1018.41 1018.48 1018.53 1018.57 1018.57 1018.68 1018.77 1018.92 1018.97 1018.97 1019.01 1019.04 1019.04 1019.16 1019.33
1016.16 1016.33 1016.57 1016.72 1016.84 1016.89 1016.89 1017.01 1017.09 1017.16 1017.12 1017.09 1017.04 1017.04 1017.21 1017.24 1017.24 1017.36 1017.36 1017.53 1017.60 1017.72 1017.89 1018.01 1018.21 1018.45 1018.48 1018.48 1018.48 1018.45 1018.45 1018.53 1018.57 1018.60 1018.68 1018.68 1018.68 1018.68 1018.68 1018.80 1018.92 1019.04
1016.48 1016.36 1016.53 1016.77 1016.80 1016.80 1016.84 1017.01 1017.21 1017.33 1017.36 1017.28 1017.28 1017.33 1017.36 1017.28 1017.21 1017.28 1017.28 1017.28 1017.36 1017.57 1017.84 1018.12 1018.33 1018.53 1018.53 1018.48 1018.45 1018.41 1018.45 1018.48 1018.45 1018.41 1018.45 1018.45 1018.33 1018.28 1018.36 1018.48 1018.60 1018.68
1017.57 1016.97 1016.60 1016.65 1016.65 1016.60 1016.65 1016.80 1016.92 1017.01 1017.09 1017.09 1017.21 1017.36 1017.45 1017.48 1017.45 1017.36 1017.41 1017.53 1017.60 1017.72 1017.92 1018.24 1018.57 1018.72 1018.68 1018.57 1018.45 1018.36 1018.33 1018.36 1018.36 1018.36 1018.36 1018.36 1018.33 1018.33 1018.33 1018.33 1018.41 1018.53
1016.24 1016.80 1016.72 1016.41 1016.28 1016.33 1016.48 1016.72 1016.97 1017.12 1017.04 1016.92 1017.12 1017.41 1017.72 1017.97 1018.04 1018.01 1017.97 1018.01 1018.12 1018.21 1018.36 1018.65 1018.77 1018.89 1018.89 1018.77 1018.60 1018.41 1018.24 1018.24 1018.21 1018.24 1018.36 1018.41 1018.45 1018.41 1018.36 1018.41 1018.45 1018.48
1016.77 1016.77 1016.72 1016.65 1016.41 1016.36 1016.65 1016.89 1017.04 1017.12 1017.24 1017.28 1017.48 1017.65 1017.89 1018.21 1018.57 1018.89 1018.72 1018.53 1018.57 1018.72 1018.77 1018.84 1018.97 1018.92 1018.84 1018.72 1018.60 1018.45 1018.24 1018.16 1018.16 1018.28 1018.45 1018.45 1018.53 1018.53 1018.53 1018.57 1018.57 1018.57
1016.45 1016.77 1017.36 1017.45 1016.97 1016.60 1016.80 1017.21 1017.45 1017.57 1017.57 1017.45 1017.68 1017.80 1018.01 1018.04 1018.01 1018.84 1019.45 1019.28 1019.04 1019.01 1018.97 1019.04 1019.09 1019.01 1019.01 1018.92 1018.68 1018.48 1018.24 1018.09 1018.04 1018.21 1018.41 1018.57 1018.65 1018.84 1018.80 1018.80 1018.72 1018.65
1016.36 1016.72 1016.97 1017.09 1016.68 1016.57 1016.68 1016.77 1017.01 1017.21 1017.45 1017.57 1017.68 1017.80 1018.04 1018.24 1018.41 1018.72 1019.16 1019.48 1019.24 1019.09 1019.12 1019.12 1019.21 1019.28 1019.33 1019.28 1019.04 1018.68 1018.36 1018.16 1018.09 1018.16 1018.45 1018.65 1018.80 1019.01 1019.09 1019.09 1019.12 1019.28
Wind_Speed
5 5 6 6 6 6 6 6 6 6 6 6 6 5 5 5 3 4 4 4 3 4 4 3 3 3 3 2 2 2 1 1 1 0 0 1 1 2 2 3 3 3
5 5 5 5 5 4 5 6 6 7 7 6 6 5 4 4 4 4 4 4 3 4 4 4 3 4 3 3 3 2 2 1 2 1 1 1 0 0 1 2 3 2
4 4 5 6 6 6 6 5 6 6 6 6 5 5 5 4 4 4 4 4 4 4 4 4 3 3 4 3 3 3 2 2 3 2 0 1 1 2 2 1 2 2
5 5 6 6 6 6 5 5 4 4 4 5 5 5 4 4 4 4 4 5 4 4 4 3 4 3 4 3 3 3 2 3 3 1 2 2 3 2 3 1 2 3
5 5 5 5 5 5 5 5 6 5 5 5 5 4 4 4 4 4 5 5 4 5 4 4 4 4 4 3 3 3 3 3 3 2 2 3 4 3 3 2 3 4
5 5 5 5 5 5 6 6 6 6 5 5 6 5 5 5 4 4 5 5 5 5 5 4 4 4 4 4 3 3 3 3 3 2 2 3 4 3 3 3 3 3
6 5 5 5 5 5 6 6 5 5 6 6 4 5 5 5 5 5 5 6 6 5 5 5 5 4 4 3 3 3 3 3 3 3 3 4 3 5 3 3 3 3
6 5 5 5 6 6 6 6 6 6 6 4 6 6 5 6 6 5 5 6 6 6 5 5 5 5 4 3 4 4 4 3 4 3 3 4 3 4 5 4 3 3
6 6 6 6 6 6 6 6 6 6 5 6 6 6 5 6 6 6 6 6 6 6 6 5 5 5 5 4 5 5 5 4 4 4 4 4 4 5 5 3 3 3
7 6 7 7 7 6 6 6 6 6 6 6 6 5 6 6 6 6 6 6 6 6 6 6 5 5 5 5 6 5 6 6 5 5 4 4 5 5 5 4 4 3
7 7 7 7 8 6 7 7 6 6 5 6 6 6 6 6 6 5 5 6 7 7 6 6 6 6 5 5 5 5 6 6 5 5 5 5 5 5 5 4 4 4
8 7 8 8 8 7 7 7 7 6 6 6 6 7 6 6 7 6 6 7 7 7 7 6 6 6 6 6 6 6 5 5 5 5 5 5 5 5 5 4 4 5
9 9 8 8 7 7 6 6 6 6 6 7 6 6 7 6 6 7 6 7 7 7 7 6 6 6 6 7 6 6 6 6 6 5 5 5 4 5 5 4 5 5
9 8 8 8 7 7 6 6 6 6 6 6 5 6 6 7 7 7 7 6 7 7 7 6 6 6 6 6 6 7 6 6 6 5 5 5 5 6 5 5 5 5
8 7 6 7 7 7 7 7 7 6 6 6 5 6 6 7 7 7 7 7 7 7 7 6 6 7 6 6 7 6 6 6 6 6 6 6 6 6 6 5 5 4
8 7 7 7 7 8 7 7 7 6 6 6 6 7 7 6 6 7 7 8 8 7 6 6 6 6 7 11 8 6 6 6 6 6 5 5 6 5 5 5 5 4
8 8 7 8 8 8 7 7 7 6 6 6 6 6 6 6 5 6 7 7 8 7 7 7 6 6 9 9 10 9 5 5 6 6 5 5 5 5 6 5 4 3
8 8 8 9 8 8 7 7 6 6 5 5 6 6 6 5 5 6 6 6 6 6 6 6 6 5 6 5 6 8 7 5 5 5 5 6 5 5 5 4 3 2
7 7 9 7 5 3 3 5 6 6 6 6 7 7 5 6 7 6 6 6 5 5 5 5 5 4 4 3 4 5 6 6 5 5 5 6 5 5 5 5 3 4
5 5 4 3 3 3 3 2 0 2 1 1 3 4 6 7 7 7 6 6 6 6 5 4 3 2 1 2 3 4 5 5 4 5 5 5 5 6 6 5 6 6
2 6 6 5 5 5 4 4 3 2 1 1 0 1 4 7 8 8 7 6 6 5 5 4 2 3 1 1 2 3 3 4 4 4 5 5 6 5 6 6 5 5
6 3 6 6 6 6 6 6 5 5 5 2 2 1 2 2 1 1 3 3 3 3 4 3 1 4 4 4 2 2 4 3 3 4 4 3 3 3 4 4 4 5
9 6 5 7 8 7 6 5 4 2 1 2 4 3 2 2 2 2 2 2 2 2 3 2 2 5 7 7 6 4 1 3 3 3 3 3 3 3 3 3 3 3
1 2 4 4 5 6 5 5 4 3 1 1 1 3 4 5 6 6 4 3 3 3 3 3 2 3 5 6 6 5 1 2 2 4 3 4 3 2 2 2 2 6
3 2 2 2 3 3 6 7 6 4 3 3 3 2 3 4 4 2 2 2 2 3 5 4 2 3 6 8 7 4 2 2 4 5 5 5 4 4 3 2 2 3
5 5 6 7 4 6 7 8 7 5 4 4 4 3 3 4 5 4 4 4 3 4 3 3 3 4 7 10 9 7 4 2 1 4 4 4 4 4 3 3 3 4
Wind_Direction
185 182 185 186 187 186 181 183 191 189 196 195 195 206 202 206 196 197 207 209 219 228 234 232 227 234 240 235 228 234 221 208 259 234 313 86 46 16 11 357 10 31
187 187 189 186 186 186 186 187 187 189 193 194 201 198 206 198 208 194 207 211 218 229 235 236 229 220 225 214 224 227 277 282 296 270 345 10 311 26 8 341 338 354
185 184 187 186 189 189 186 190 185 190 186 196 198 197 201 202 208 209 211 211 214 227 230 225 219 218 217 213 207 224 247 278 275 287 23 302 315 331 311 334 332 353
194 190 190 194 190 189 181 176 188 190 185 186 199 200 197 203 202 213 219 220 215 224 225 215 210 211 212 210 200 226 249 265 268 312 313 323 297 305 306 323 332 322
191 195 197 197 194 187 175 181 188 189 193 200 199 200 200 205 199 211 216 225 217 222 220 219 212 212 209 204 193 219 240 252 281 293 286 288 290 301 295 332 325 319
194 192 194 193 190 180 182 192 196 190 196 198 208 200 207 206 203 205 209 216 216 216 214 216 211 221 208 208 199 214 230 241 254 230 257 269 283 295 292 300 305 308
192 186 192 188 187 186 189 198 199 198 198 204 192 208 204 207 207 210 207 210 210 207 208 208 213 220 222 209 204 221 228 226 246 222 236 260 261 280 281 275 277 289
195 186 187 184 190 192 197 199 202 201 203 195 202 212 201 208 207 207 204 204 202 206 206 211 212 215 219 205 210 223 236 221 231 229 230 252 255 265 269 257 255 269
193 191 187 189 193 196 204 204 204 205 194 197 205 209 205 208 206 203 200 201 203 202 204 210 212 216 217 209 216 216 226 232 225 219 223 240 246 250 254 257 270 264
197 196 195 196 200 201 206 211 207 206 198 199 204 200 201 210 207 205 199 199 203 204 203 209 209 213 215 214 217 216 221 230 231 224 225 227 234 246 252 246 246 263
200 197 199 202 207 203 209 209 209 207 201 206 203 206 205 202 209 205 204 201 206 207 208 209 211 209 214 219 221 218 219 226 230 229 228 230 232 240 245 243 246 238
200 198 201 203 206 208 208 209 208 208 205 207 203 209 208 204 204 203 201 206 210 212 210 211 212 212 213 220 222 222 224 229 234 233 231 230 236 239 245 245 248 251
199 201 202 202 205 207 205 205 207 209 209 212 207 209 208 208 208 204 207 205 212 212 213 213 215 217 218 220 223 221 222 226 236 238 239 238 239 243 248 251 249 253
200 199 202 204 204 204 206 206 207 210 212 213 206 209 213 213 209 206 209 206 212 211 214 211 214 220 222 224 222 219 215 221 225 229 236 240 242 239 238 241 239 242
201 203 203 204 204 204 209 212 213 214 214 215 213 214 214 214 213 208 206 211 215 212 214 210 210 218 219 216 217 220 214 218 220 224 230 238 243 247 248 247 250 244
198 201 204 205 207 210 213 213 216 216 216 219 220 220 221 215 212 211 208 211 214 215 213 210 214 216 217 216 211 210 211 217 219 223 224 227 232 243 255 250 251 256
196 200 197 202 209 213 215 217 219 219 221 223 223 223 223 219 213 214 213 213 214 211 208 211 213 212 205 209 219 227 220 216 217 221 219 225 226 228 243 259 262 251
198 197 197 203 204 210 215 219 219 218 223 227 228 227 225 216 216 218 220 219 216 211 205 204 203 186 189 208 217 217 220 215 214 218 217 218 227 230 239 246 223 196
197 200 203 202 198 206 229 219 210 218 223 219 221 223 216 212 217 211 216 216 211 203 201 201 198 168 194 218 233 235 237 229 215 217 213 219 218 223 227 222 187 177
163 161 154 126 100 92 82 51 190 195 205 244 239 215 207 215 215 211 209 206 203 201 197 178 163 114 126 242 249 238 231 223 224 219 222 219 219 218 217 202 184 176
176 162 157 142 128 121 114 116 111 98 76 36 46 259 234 216 206 207 208 202 197 179 168 170 141 51 1 267 265 261 259 240 236 232 220 223 220 209 195 187 179 171
294 242 170 160 152 151 156 156 148 151 160 158 116 69 19 359 325 241 194 172 149 150 158 159 74 15 353 347 322 275 253 217 215 214 203 197 190 183 180 170 161 160
188 205 206 182 173 169 163 145 117 61 56 139 122 114 73 36 21 33 53 87 89 84 109 90 47 17 0 349 339 335 219 178 184 177 176 179 181 176 169 162 164 166
347 248 211 189 186 171 136 99 88 91 35 11 67 93 83 64 28 11 18 50 73 75 91 97 50 10 4 345 339 334 321 155 164 162 174 171 166 158 147 151 186 163
138 159 271 251 213 117 87 75 55 57 43 57 72 52 65 81 93 87 337 18 65 84 87 79 42 22 16 350 332 303 248 178 166 172 175 182 148 104 57 44 17 99
179 197 196 216 202 99 104 120 142 141 136 120 112 112 116 108 125 102 70 31 34 64 65 57 46 19 16 355 339 317 276 209 181 182 199 152 96 102 131 79 78 63